Карточка аэропорта USRR

Внимание!
Информация на этой странице в стадии наполнения.
Если вы не увидели какой-то информации, или заметили неточность - пожалуйста сообщите нам!
Спасибо!
Команда RU-STAFF
Название аэропортаСургут
Название аэропорта (англ.)Surgut
Превышение196 ft. (59.7 m.)
Координаты61°20.502', 73°24.168'
Высота перехода700m
Эшелон переходаQFE>=742mm:FL040; QFE<=742mm:FL050
Коды ответчика5570-5577
Зона ОрВДТюмень РПИ (USTV)
Данные METARUSRR 271100Z 17003MPS 140V210 9999 OVC006 M01/M01 Q1024 R07/39//38 NOSIG RMK OBST OBSC QFE763
Проноз погоды (TAF)USRR 270745Z 2709/2809 20003G08MPS 6000 BKN003 TEMPO 2709/2712 2000 BR BKN002 FM271200 22005G12MPS 2100 -SHSN BKN005 BKN020CB TEMPO 2712/2803 0800 +SHSN VV003 BECMG 2722/2724 26005G12MPS BECMG 2804/2806 6000 -SHSN FEW011 BKN016CB
NOTAMshow/hide NOTAM
AWOS   TABLE

Информация о ВПП

ВПП Длина ВПП (м.) Покрытие Курс ВПП Частота ILS
072780Асфальтобетон73110.5
252780Асфальтобетон253109.1

Диспетчерские позиции

Позывной Наименование органа УВД Частота
USRR_APPСургут-Подход129.300
USRR_R_APPСургут - Круг120.300
USRR_TWRСургут-Вышка120.800



Спутниковое изображение